Regional Weather Roundup
Issued by NWS Portland, ME

Current Version | Previous Version | Text Only | Print | Product List | Glossary Off
Versions: 1 2 3 4 5 6 7 8 9 10 11 12 13 14 15 16 17 18 19 20 21 22 23 24 25 26 27 28 29 30 31 32 33 34 35 36 37 38 39 40 41 42 43 44 45 46 47 48 49 50
000 ASUS41 KGYX 242310 RWRGYX WEATHER ROUNDUP FOR MAINE AND NEW HAMPSHIRE NATIONAL WEATHER SERVICE GRAY ME 700 PM EDT FRI OCT 24 2014 MEZ002-005-006-010-012-015-018-020-021-024-026-027-029-250000- MAINE CITY SKY/WX TMP DP RH WIND PRES REMARKS PORTLAND CLOUDY 52 43 71 NW9 29.70R SANFORD CLOUDY 50 43 76 W5 29.71R BAR HARBOR CLOUDY 45 45 100 N9 29.62R WISCASSET CLOUDY 48 43 82 VRB3 29.69R ROCKLAND CLOUDY 48 43 81 N5 29.64R FRYEBURG CLOUDY 48 44 86 CALM 29.71R LEWISTONAUBURN CLOUDY 48 41 76 NW6 29.70R AUGUSTA CLOUDY 46 41 82 N16G25 29.68R WATERVILLE CLOUDY 46 39 76 N13 29.65R BANGOR LGT RAIN 44 42 93 N13 29.66R FOG GREENVILLE NOT AVBL MILLINOCKET LGT RAIN 43 40 89 N10 29.69R HOULTON CLOUDY 40 38 93 N8 29.65S PRESQUE ISLE CLOUDY 43 37 81 N7 29.68F FRENCHVILLE LGT RAIN 40 37 89 N9 29.71R CARIBOU LGT RAIN 42 39 89 N8 29.67F $$ NHZ002-005-008-009-011-012-014-250000- NEW HAMPSHIRE CITY SKY/WX TMP DP RH WIND PRES REMARKS PORTSMOUTH CLOUDY 50 44 80 W6 29.70R ROCHESTER CLOUDY 50 44 80 NW7 29.70R NASHUA CLOUDY 50 41 71 NW13 29.74R MANCHESTER CLOUDY 49 39 68 NW10 29.72R CONCORD CLOUDY 47 40 76 NW10 29.73R LACONIA CLOUDY 46 39 76 W8 29.70R PLYMOUTH CLOUDY 46 44 93 W10G17 29.74R BERLIN CLOUDY 44 42 93 CALM 29.75R WHITEFIELD CLOUDY 44 41 89 S3 29.78R JAFFREY CLOUDY 46 40 79 NW3 29.75R LEBANON CLOUDY 48 39 71 N12 29.78R MT WASHINGTON FOG 34 34 100 N30 N/A VSB 1/16 $$ VTZ005-007-008-250000- VERMONT CITY SKY/WX TMP DP RH WIND PRES REMARKS ST JOHNSBURY N/A 45 40 82 MISG 29.78R MONTPELIER CLOUDY 42 40 92 NW7 29.85R BURLINGTON CLOUDY 48 42 80 CALM 29.85R $$ MAZ007-012-024-CTZ003-RIZ002-NYZ038-NYZ072-250000- SOUTHERN NEW ENGLAND AND NY CITY SKY/WX TMP DP RH WIND PRES REMARKS BOSTON CLOUDY 51 43 74 NW8 29.72R WORCESTER CLOUDY 46 39 76 NW12G22 29.74R NANTUCKET CLOUDY 53 48 83 NW10 29.71R PROVIDENCE CLOUDY 52 42 69 NW9 29.74R HARTFORD CLOUDY 53 41 63 NW9G17 29.77R ALBANY CLOUDY 47 44 90 NE8 29.84R NEW YORK CITY MOCLDY 58 47 66 E6 29.79R $$ ANZ081-ANZ082-ANZ150-NHZ014-MEZ023>029-250000- COASTAL MARINE OBSERVATIONS STATION/POSITION TIME TEMP WIND PRES WAVE AIR SEA DIR/SP/G HT/PER (UTC) (F) (DEG/KT/KT) (MB) (FT/S) MATINICUS ROCK 2300 360/ 22/ 24 1003.0R PORTLAND WX BUOY 2250 53 53 320/ 12/ 14 1005.2R 5/10 WELLS 2200 52 51 350/ 4/ 5 1004.3R ISLE OF SHOALS 2300 50 290/ 18/ 20 1004.9R JEFFREYS LEDGE 2221 56 N/A 8/11 CASHES LEDGE BUO 2250 51 54 340/ 17/ 21 1003.3R 8/ 7 $$ .............KEY.............. WCI - WIND CHILL TC - TEMPERATURE IN CELSIUS VSB - VISIBILITY IN MILES HX - HEAT INDEX FAIR- INDICATES FEW OR NO CLOUDS BELOW 12,000 FT, WITH NO SIGNIFICANT WEATHER AND/OR OBSTRUCTIONS TO VISIBILITY.

USA.gov is the U.S. government's official web portal to all federal, state and local government web resources and services.